STARLINK-33855

Last updated on Thu Jul 03 2025 00:02:06 GMT+0000 (Coordinated Universal Time)

1 64335U 25124U 25183.58335648 .00047804 00000+0 81689-3 0 9993 2 64335 43.0002 98.8555 0001674 262.9811 179.0206 15.50537608 4536
UTC large
Height (km)
Speed (km/s)
/
Latitude / Longitude
Inclination (degrees)
Orbital Period (minutes)
Azimuth
Elevation
Range (km)
Doppler Factor

Next 0 passes for location: London (51.5072 / 0.1276)

Sorry there are no passes over London.